This demonstration page uses our WeatherBlox Daily Observations layout. Learn more.

Left ArrowRight Arrow

Hourly Observations for June 5, 2018

Temp ( °F °C ) Dew Point ( °F °C ) Humidity (%) Winds ( mph kmh ) Pressure ( in mb ) Visibility ( mi km ) Precip ( " mm )
12:53 am 00:53 Mostly Clear 57 13.9 45 7.2 64 64 WSW 6 9 29.78 1009 10 16 0.00 0.00
1:53 am 01:53 Clear 57 13.9 39 3.9 51 51 W 7 11 29.80 1009 10 16 0.00 0.00
2:53 am 02:53 Mostly Clear 55 12.8 39 3.9 55 55 SSW 6 9 29.83 1010 10 16 0.00 0.00
3:53 am 03:53 Mostly Clear 50 10 40 4.4 68 68 SSW 8 13 29.83 1010 10 16 0.00 0.00
4:53 am 04:53 Mostly Clear 51 10.6 39 3.9 64 64 S 9 15 29.85 1011 10 16 0.00 0.00
5:53 am 05:53 Sunny 49 9.4 39 3.9 69 69 SW 9 15 29.89 1012 10 16 0.00 0.00
6:53 am 06:53 Mostly Cloudy 53 11.7 41 5 64 64 W 12 19 29.90 1012 10 16 0.00 0.00
7:53 am 07:53 Mostly Sunny 55 12.8 43 6.1 64 64 W 7 11 29.89 1012 10 16 0.00 0.00
8:53 am 08:53 Mostly Cloudy 58 14.4 44 6.7 60 60 WSW 7 11 29.91 1013 10 16 0.00 0.00
9:53 am 09:53 Mostly Cloudy 62 16.7 43 6.1 50 50 WNW 8 13 29.91 1013 10 16 0.00 0.00
10:53 am 10:53 Mostly Sunny 63 17.2 42 5.6 47 47 Calm 29.89 1012 10 16 0.00 0.00
11:53 am 11:53 Sunny 64 17.8 42 5.6 45 45 NE 5 7 29.89 1012 10 16 0.00 0.00
12:53 pm 12:53 Mostly Cloudy 67 19.4 40 4.4 37 37 VRB 5 7 29.88 1012 10 16 0.00 0.00
1:53 pm 13:53 Sunny 68 20 38 3.3 33 33 VRB 6 9 29.87 1011 10 16 0.00 0.00
2:53 pm 14:53 Sunny 70 21.1 36 2.2 29 29 undefined N/A 29.86 1011 10 16 0.00 0.00
3:53 pm 15:53 Sunny 70 21.1 35 1.7 28 28 VRB 5 7 29.86 1011 10 16 0.00 0.00
4:53 pm 16:53 Sunny 72 22.2 36 2.2 27 27 WSW 8 13 29.85 1011 10 16 0.00 0.00
5:53 pm 17:53 Sunny 71 21.7 36 2.2 28 28 SW 7 11 29.85 1011 10 16 0.00 0.00
6:53 pm 18:53 Sunny 71 21.7 38 3.3 30 30 SSW 8 13 29.85 1011 10 16 0.00 0.00
7:53 pm 19:53 Sunny 69 20.6 42 5.6 38 38 S 7 11 29.85 1011 10 16 0.00 0.00
8:53 pm 20:53 Sunny 64 17.8 43 6.1 46 46 S 9 15 29.86 1011 10 16 0.00 0.00
9:53 pm 21:53 Clear 58 14.4 46 7.8 65 65 SE 7 11 29.88 1012 10 16 0.00 0.00
10:53 pm 22:53 Clear 55 12.8 44 6.7 67 67 S 8 13 29.88 1012 10 16 0.00 0.00
11:53 pm 23:53 Clear 55 12.8 43 6.1 64 64 SSE 3 6 29.89 1012 10 16 0.00 0.00

Powered by AerisWeather